Content
SEND FEEDBACK

Daily
Averages
Monthly
Summary
United States of America

CHERITON, VIRGINIA


Home > North America > United States > Virginia
Elevation: 1 foot     Latitude: 37 17N     Longitude: 075 58W

WEATHER
 
SELECT A DAY
Number of Records: 434,767;   Date Range: 1/1/95 - 7/29/14
 
SHARE

PRINT THIS DATA

[ ← Previous Day ]
WEATHER ALMANAC - JANUARY 23, 2013
[ Next Day → ]
[ °C ]   °F
Weather ElementAverageHighLow
Temperature24.5 °F30.2 °F (3:36 pm)15.8 °F (6:36 am)
Dewpoint6.7 °F15.8 °F (11:56 pm) (7:00 pm)
Humidity48.3 %68 % (6:36 am)29 % (4:16 pm)
Barometer30.26 in30.36 in (10:17 am)30.14 in (11:36 pm)
Wind Speed5.5 mph15 mph (12:36 pm)
Wind Gust21.9 mph (10:37 am)
Weather ElementAverage
Visibility10 mi
Wind DirectionSSE (153.7 °)

Weather ElementTotal
Precipitation---
Heating Degree Days42 (Base 65)
Averaged from 68 records on January 23, 2013
WEATHER CONDITIONS BREAKOUT
WIND DIRECTION BREAKOUT
WEATHER BY HOUR - JANUARY 23, 2013
[ °C ]   °F
Local TimeTemperatureDewpointHumidityBarometerVisibilityWind DirectionWind SpeedGust SpeedPrecipitationEventsConditions
12:56 AM21.2 °F6.8 °F54 %30.28 in10.0 miENE (60°)4.6 mphClear
1:16 AM21.2 °F6.8 °F54 %30.29 in10.0 miNNE (20°)4.6 mphClear
1:36 AM21.2 °F6.8 °F54 %30.28 in10.0 miNE (50°)3.5 mphClear
1:56 AM21.2 °F6.8 °F54 %30.29 in10.0 miNorth (10°)6.9 mphClear
2:16 AM21.2 °F6.8 °F54 %30.29 in10.0 miNorth (10°)10.4 mphClear
2:36 AM21.2 °F6.8 °F54 %30.30 in10.0 miNorth (10°)5.8 mphClear
2:56 AM21.2 °F6.8 °F54 %30.30 in10.0 miNorth (360°)3.5 mphClear
3:16 AM21.2 °F6.8 °F54 %30.30 in10.0 miNorth (360°)5.8 mph16.1 mphClear
3:36 AM21.2 °F6.8 °F54 %30.30 in10.0 miNorth (350°)10.4 mphClear
3:58 AM23.0 °F6.8 °F50 %30.31 in10.0 miNNW (340°)8.1 mphClear
4:16 AM23.0 °F6.8 °F50 %30.30 in10.0 miNorth (350°)9.2 mphClear
4:40 AM21.2 °F6.8 °F54 %30.30 in10.0 miEast (90°)4.6 mphScattered Clouds
4:56 AM19.4 °F5.0 °F54 %30.30 in10.0 miCalmScattered Clouds
5:18 AM17.6 °F5.0 °F58 %30.31 in10.0 miCalmScattered Clouds
5:38 AM17.6 °F5.0 °F58 %30.31 in10.0 miCalmClear
5:56 AM17.6 °F5.0 °F58 %30.31 in10.0 miEast (100°)4.6 mphClear
6:16 AM17.6 °F3.2 °F53 %30.31 in10.0 miEast (80°)5.8 mphClear
6:36 AM15.8 °F6.8 °F68 %30.32 in10.0 miCalmClear
6:56 AM17.6 °F5.0 °F58 %30.33 in10.0 miESE (120°)3.5 mphClear
7:16 AM17.6 °F5.0 °F58 %30.33 in10.0 miCalmClear
7:36 AM17.6 °F5.0 °F58 %30.33 in10.0 miCalmClear
7:56 AM17.6 °F6.8 °F63 %30.33 in10.0 miCalmClear
8:16 AM19.4 °F6.8 °F58 %30.33 in10.0 miCalmClear
8:36 AM21.2 °F6.8 °F54 %30.34 in10.0 miCalmClear
8:56 AM24.8 °F6.8 °F46 %30.35 in10.0 miNW (320°)10.4 mphClear
9:16 AM24.8 °F6.8 °F46 %30.35 in10.0 miNW (310°)12.7 mph18.4 mphClear
9:36 AM26.6 °F6.8 °F43 %30.34 in10.0 miNW (310°)10.4 mphClear
9:56 AM26.6 °F6.8 °F43 %30.35 in10.0 miNW (310°)11.5 mph17.3 mphClear
10:17 AM26.6 °F6.8 °F43 %30.36 in10.0 miNW (310°)9.2 mphClear
10:37 AM26.6 °F6.8 °F43 %30.35 in10.0 miNW (310°)13.8 mph21.9 mphClear
10:56 AM26.6 °F6.8 °F43 %30.34 in10.0 miWNW (300°)9.2 mph17.3 mphClear
11:16 AM26.6 °F8.6 °F47 %30.33 in10.0 miNW (320°)10.4 mphClear
11:37 AM26.6 °F8.6 °F47 %30.32 in10.0 miWNW (300°)8.1 mphClear
11:56 AM26.6 °F0.0 °F30.30 in10.0 miWNW (290°)8.1 mph20.7 mphClear
12:18 PM26.6 °F3.2 °F37 %30.29 in10.0 miWest (280°)11.5 mph18.4 mphClear
12:36 PM26.6 °F3.2 °F37 %30.28 in10.0 miWest (280°)15.0 mph19.6 mphClear
12:57 PM26.6 °F5.0 °F40 %30.26 in10.0 miWNW (300°)10.4 mph18.4 mphClear
1:16 PM26.6 °F3.2 °F37 %30.25 in10.0 miWNW (290°)13.8 mph17.3 mphClear
1:37 PM28.4 °F3.2 °F34 %30.24 in10.0 miWest (280°)9.2 mph17.3 mphClear
1:56 PM28.4 °F3.2 °F34 %30.24 in10.0 miWNW (300°)12.7 mph18.4 mphClear
2:16 PM28.4 °F1.4 °F31 %30.25 in10.0 miWest (270°)9.2 mphScattered Clouds
2:56 PM28.4 °F1.4 °F31 %30.23 in10.0 miWSW (250°)6.9 mphOvercast
3:16 PM28.4 °F1.4 °F31 %30.24 in10.0 miWNW (300°)9.2 mphOvercast
3:36 PM30.2 °F3.2 °F32 %30.24 in10.0 miNW (310°)6.9 mphScattered Clouds
3:56 PM28.4 °F3.2 °F34 %30.23 in10.0 miWNW (300°)5.8 mphMostly Cloudy
4:16 PM30.2 °F1.4 °F29 %30.23 in10.0 miWest (280°)10.4 mphScattered Clouds
4:58 PM28.4 °F3.2 °F34 %30.23 in10.0 miWNW (290°)6.9 mphScattered Clouds
5:17 PM28.4 °F3.2 °F34 %30.23 in10.0 miNW (320°)4.6 mphMostly Cloudy
5:36 PM28.4 °F3.2 °F34 %30.23 in10.0 miCalmScattered Clouds
5:57 PM26.6 °F5.0 °F40 %30.23 in10.0 miCalmClear
6:16 PM24.8 °F6.8 °F46 %30.23 in10.0 miEast (90°)3.5 mphClear
6:36 PM26.6 °F8.6 °F47 %30.22 in10.0 miNE (50°)3.5 mphClear
6:57 PM24.8 °F10.4 °F54 %30.22 in10.0 miEast (90°)3.5 mphClear
7:16 PM26.6 °F0.0 °F30.21 in10.0 miCalmClear
7:36 PM26.6 °F10.4 °F51 %30.20 in10.0 miESE (120°)3.5 mphMostly Cloudy
7:56 PM26.6 °F10.4 °F51 %30.20 in10.0 miCalmOvercast
8:16 PM26.6 °F10.4 °F51 %30.19 in10.0 miCalmOvercast
8:38 PM26.6 °F10.4 °F51 %30.19 in10.0 miEast (100°)3.5 mphOvercast
8:56 PM26.6 °F10.4 °F51 %30.19 in10.0 miEast (100°)3.5 mphOvercast
9:16 PM26.6 °F10.4 °F51 %30.18 in10.0 miEast (90°)3.5 mphOvercast
9:36 PM26.6 °F12.2 °F55 %30.18 in10.0 miCalmOvercast
9:56 PM26.6 °F12.2 °F55 %30.18 in10.0 miCalmOvercast
10:18 PM26.6 °F12.2 °F55 %30.18 in10.0 miEast (100°)3.5 mphOvercast
10:36 PM26.6 °F12.2 °F55 %30.17 in10.0 miENE (70°)3.5 mphOvercast
10:56 PM26.6 °F12.2 °F55 %30.16 in10.0 miEast (80°)3.5 mphOvercast
11:16 PM28.4 °F14.0 °F55 %30.15 in10.0 miENE (60°)3.5 mphOvercast
11:36 PM28.4 °F14.0 °F55 %30.14 in10.0 miENE (60°)4.6 mphOvercast
11:56 PM28.4 °F15.8 °F59 %30.14 in10.0 miCalmOvercast
Hourly data recorded from KMFV, located miles away from Cheriton, Virginia







STORIES FROM OUR PARTNERS